Home > Weather > Rishon LeZion > Past weeks

Flag for Israel Past Weather in Rishon LeZion, Israel — Yesterday and Last 2 Weeks

Now
81 °F

Partly sunny.


Feels Like: 84 °F
Forecast: 79 / 86 °F
Wind: 3 mph from North

Location: Ben Gurion International Airport

Current Time: Aug 30, 2016 at 8:08:28 AM

Latest Report: Aug 30, 2016 at 7:20 AM


Visibility: N/A

Pressure: 29.86 "Hg

Humidity: 70%

Dew Point: 70 °F

Location of Rishon LeZionLocation

Past Weather in Rishon LeZion — Graph

°F

Rishon LeZion Temperature Yesterday

Maximum temperature yesterday: 88 °F (at 11:20 AM)
Minimum temperature yesterday: 77 °F (at 6:50 AM)
Average temperature yesterday: 83 °F

High & Low Weather Summary for the Past Weeks

 TemperatureHumidityPressure
High90 °F (Aug 15, 1:50 PM)84% (Aug 15, 6:20 AM)29.95 "Hg (Aug 15, 6:20 AM)
Low75 °F (Aug 16, 6:20 AM)43% (Aug 27, 12:50 PM)29.71 "Hg (Aug 17, 3:50 PM)
Average83 °F65%29.81 "Hg
* Reported Aug 15 6:20 AM — Aug 30 6:50 AM, Rishon LeZion, Weather by CustomWeather, © 2016

Note: Actual official high and low records may vary slightly from our data, if they occured in-between our weather recording intervals... More about our weather records

Advertising

Rishon LeZion Weather History for the Previous 24 Hours

Scroll right to see more
 ConditionsComfort  
Time TempWeatherWind HumidityBarometerVisibility
6:50 AM
Tue, Aug 30
81 °FPassing clouds.3 mph74%29.83 "HgN/A
6:20 AM79 °FPassing clouds.2 mph74%29.83 "HgN/A
5:50 AM81 °FPassing clouds.2 mph74%29.83 "HgN/A
5:20 AM81 °FPassing clouds.5 mph70%29.83 "HgN/A
4:50 AM81 °FPassing clouds.3 mph70%29.83 "HgN/A
4:20 AM81 °FPassing clouds.6 mph74%29.83 "HgN/A
3:50 AM79 °FPassing clouds.3 mph79%29.83 "HgN/A
3:20 AM79 °FPassing clouds.3 mph74%29.83 "HgN/A
2:50 AM79 °FPassing clouds.2 mph74%29.86 "HgN/A
2:20 AM79 °FPassing clouds.3 mph74%29.86 "HgN/A
1:50 AM81 °FPassing clouds.3 mph70%29.86 "HgN/A
1:20 AM81 °FPassing clouds.3 mph70%29.86 "HgN/A
12:50 AM81 °FPassing clouds.5 mph70%29.86 "HgN/A
12:20 AM81 °FPassing clouds.6 mph70%29.86 "HgN/A
11:50 PM
Mon, Aug 29
81 °FPassing clouds.6 mph70%29.86 "HgN/A
11:20 PM81 °FPassing clouds.5 mph70%29.86 "HgN/A
10:50 PM81 °FPassing clouds.6 mph70%29.86 "HgN/A
10:20 PM81 °FPassing clouds.5 mph70%29.86 "HgN/A
9:50 PM82 °FPassing clouds.7 mph66%29.86 "HgN/A
9:20 PM82 °FPassing clouds.8 mph66%29.86 "HgN/A
8:50 PM82 °FPassing clouds.8 mph70%29.86 "HgN/A
8:20 PM82 °FPassing clouds.9 mph66%29.86 "HgN/A
7:50 PM82 °FPassing clouds.9 mph66%29.83 "HgN/A
7:20 PM82 °FPassing clouds.10 mph66%29.83 "HgN/A
6:50 PM82 °FPassing clouds.10 mph66%29.83 "HgN/A
6:20 PM84 °FPassing clouds.12 mph62%29.83 "HgN/A
5:50 PM84 °FPassing clouds.13 mph62%29.83 "HgN/A
5:20 PM84 °FPassing clouds.14 mph62%29.83 "HgN/A
4:50 PM86 °FPassing clouds.10 mph59%29.83 "HgN/A
4:20 PM86 °FPassing clouds.13 mph59%29.83 "HgN/A
3:50 PM88 °FPassing clouds.13 mph55%29.83 "HgN/A
3:20 PM88 °FPassing clouds.12 mph52%29.83 "HgN/A
2:50 PM88 °FPassing clouds.13 mph52%29.83 "HgN/A
2:20 PM88 °FPassing clouds.13 mph52%29.83 "HgN/A
1:50 PM88 °FPassing clouds.14 mph52%29.83 "HgN/A
1:20 PM88 °FPassing clouds.13 mph52%29.86 "HgN/A
12:50 PM88 °FPassing clouds.15 mph52%29.86 "HgN/A
12:20 PM88 °FPassing clouds.12 mph52%29.86 "HgN/A
11:50 AM88 °FScattered clouds.12 mph52%29.86 "HgN/A
11:20 AM88 °FScattered clouds.12 mph55%29.86 "HgN/A
10:50 AM86 °FScattered clouds.9 mph59%29.86 "HgN/A
10:20 AM84 °FScattered clouds.8 mph58%29.89 "HgN/A
9:50 AM84 °FScattered clouds.7 mph58%29.89 "HgN/A
9:20 AM82 °FScattered clouds.3 mph66%29.89 "HgN/A
8:50 AM82 °FScattered clouds.2 mph66%29.89 "HgN/A
8:20 AM82 °FPassing clouds.2 mph66%29.89 "HgN/A
Weather by CustomWeather, © 2016

See weather overviewHow to use our weather pages